When you browse on this site, cookies collect data to enhance your experience and personalize the content and advertising you see.
Visit our Privacy Policy to learn more. By continuing to use the site, you agree to this use of cookies and data.
  • en Suisse
  • Liste des pays
  • À 7 jours
  • Température de l'eau
  • Carte satellitaire
  • Carte météo
  • Widgets météo
  • user-avatar
    Se connecter

    Météo par heure à Molepolole

    Ce jour, 17 Novembre, Samedi

    Heure Température Précipitation Vent Pression Humidité
    00:00 +28°C° 0 mm 3 m/s 666 mmHg 22%
    01:00 +27°C° 0 mm 4 m/s 666 mmHg 24%
    02:00 +26°C° 0 mm 4 m/s 666 mmHg 27%
    03:00 +26°C° 0 mm 3 m/s 666 mmHg 29%
    04:00 +25°C° 0 mm 3 m/s 666 mmHg 31%
    05:00 +24°C° 0 mm 3 m/s 665 mmHg 34%
    06:00 +26°C° 0 mm 3 m/s 666 mmHg 32%
    07:00 +27°C° 0 mm 3 m/s 667 mmHg 30%
    08:00 +28°C° 0 mm 3 m/s 667 mmHg 28%
    09:00 +30°C° 0 mm 3 m/s 667 mmHg 24%
    10:00 +34°C° 0 mm 3 m/s 668 mmHg 21%
    11:00 +36°C° 0 mm 2 m/s 668 mmHg 18%
    12:00 +37°C° 0 mm 2 m/s 667 mmHg 16%
    13:00 +38°C° 0 mm 2 m/s 667 mmHg 14%
    14:00 +40°C° 0 mm 2 m/s 666 mmHg 12%
    15:00 +39°C° 0 mm 2 m/s 666 mmHg 12%
    16:00 +39°C° 0 mm 2 m/s 665 mmHg 12%
    17:00 +39°C° 0 mm 2 m/s 665 mmHg 12%
    18:00 +37°C° 0.1 mm 2 m/s 665 mmHg 14%
    19:00 +35°C° 0.1 mm 2 m/s 664 mmHg 16%
    20:00 +33°C° 0.1 mm 1 m/s 664 mmHg 18%
    21:00 +32°C° 0 mm 2 m/s 665 mmHg 19%
    22:00 +31°C° 0 mm 2 m/s 665 mmHg 20%
    23:00 +30°C° 0 mm 3 m/s 665 mmHg 21%

    Demain, 18 Novembre, Dimanche

    Heure Température Précipitation Vent Pression Humidité
    00:00 +30°C° 0 mm 3 m/s 665 mmHg 23%
    01:00 +29°C° 0 mm 3 m/s 664 mmHg 24%
    02:00 +28°C° 0 mm 3 m/s 664 mmHg 25%
    03:00 +27°C° 0 mm 3 m/s 664 mmHg 26%
    04:00 +27°C° 0 mm 2 m/s 664 mmHg 28%
    05:00 +26°C° 0 mm 2 m/s 664 mmHg 29%
    06:00 +28°C° 0 mm 3 m/s 665 mmHg 26%
    07:00 +29°C° 0 mm 4 m/s 666 mmHg 23%
    08:00 +32°C° 0 mm 4 m/s 666 mmHg 20%
    09:00 +34°C° 0 mm 4 m/s 667 mmHg 18%
    10:00 +36°C° 0 mm 5 m/s 667 mmHg 17%
    11:00 +37°C° 0 mm 5 m/s 667 mmHg 15%
    12:00 +38°C° 0 mm 4 m/s 666 mmHg 14%
    13:00 +40°C° 0 mm 4 m/s 666 mmHg 13%
    14:00 +40°C° 0 mm 3 m/s 665 mmHg 13%
    15:00 +39°C° 0 mm 3 m/s 665 mmHg 12%
    16:00 +39°C° 0 mm 3 m/s 664 mmHg 12%
    17:00 +39°C° 0 mm 3 m/s 664 mmHg 12%
    18:00 +38°C° 0 mm 3 m/s 664 mmHg 14%
    19:00 +36°C° 0 mm 2 m/s 664 mmHg 16%
    20:00 +35°C° 0 mm 2 m/s 664 mmHg 18%
    21:00 +34°C° 0 mm 3 m/s 664 mmHg 20%
    22:00 +34°C° 0 mm 4 m/s 664 mmHg 21%
    23:00 +33°C° 0 mm 5 m/s 665 mmHg 23%

    Après-demain, 19 Novembre, Lundi

    Heure Température Précipitation Vent Pression Humidité
    00:00 +32°C° 0 mm 6 m/s 664 mmHg 28%
    01:00 +29°C° 0 mm 6 m/s 664 mmHg 33%
    02:00 +28°C° 0 mm 7 m/s 664 mmHg 38%
    03:00 +27°C° 0 mm 7 m/s 664 mmHg 41%
    04:00 +26°C° 0 mm 7 m/s 664 mmHg 45%
    05:00 +24°C° 0 mm 7 m/s 664 mmHg 49%
    06:00 +26°C° 0 mm 8 m/s 665 mmHg 47%
    07:00 +27°C° 0 mm 8 m/s 665 mmHg 45%
    08:00 +27°C° 0 mm 9 m/s 666 mmHg 43%
    09:00 +29°C° 0 mm 9 m/s 666 mmHg 39%
    10:00 +32°C° 0 mm 8 m/s 666 mmHg 36%
    11:00 +34°C° 0 mm 8 m/s 667 mmHg 32%
    12:00 +35°C° 0 mm 7 m/s 666 mmHg 28%
    13:00 +38°C° 0 mm 6 m/s 666 mmHg 25%
    14:00 +39°C° 0 mm 6 m/s 665 mmHg 21%
    15:00 +39°C° 0 mm 5 m/s 664 mmHg 22%
    16:00 +37°C° 0 mm 4 m/s 664 mmHg 22%
    17:00 +37°C° 0 mm 3 m/s 663 mmHg 22%
    18:00 +34°C° 0.6 mm 4 m/s 662 mmHg 28%
    19:00 +32°C° 0.6 mm 5 m/s 662 mmHg 34%
    20:00 +29°C° 0.6 mm 6 m/s 662 mmHg 40%
    21:00 +29°C° 0 mm 6 m/s 662 mmHg 42%
    22:00 +28°C° 0 mm 6 m/s 663 mmHg 43%
    23:00 +28°C° 0 mm 6 m/s 663 mmHg 45%

    20 Novembre, Mardi

    Heure Température Précipitation Vent Pression Humidité
    00:00 +27°C° 0 mm 6 m/s 662 mmHg 45%
    01:00 +27°C° 0 mm 5 m/s 662 mmHg 45%
    02:00 +26°C° 0 mm 5 m/s 661 mmHg 44%
    03:00 +26°C° 0 mm 4 m/s 662 mmHg 46%
    04:00 +25°C° 0 mm 4 m/s 662 mmHg 47%
    05:00 +25°C° 0 mm 3 m/s 662 mmHg 49%
    06:00 +26°C° 0 mm 5 m/s 662 mmHg 47%
    07:00 +27°C° 0 mm 6 m/s 663 mmHg 46%
    08:00 +27°C° 0 mm 7 m/s 663 mmHg 45%
    09:00 +30°C° 0 mm 7 m/s 664 mmHg 39%
    10:00 +33°C° 0 mm 7 m/s 664 mmHg 34%
    11:00 +35°C° 0 mm 7 m/s 664 mmHg 28%
    12:00 +36°C° 0 mm 7 m/s 664 mmHg 24%
    13:00 +38°C° 0 mm 7 m/s 663 mmHg 21%
    14:00 +40°C° 0 mm 7 m/s 662 mmHg 17%
    15:00 +39°C° 0 mm 6 m/s 662 mmHg 17%
    16:00 +39°C° 0 mm 6 m/s 661 mmHg 18%
    17:00 +38°C° 0 mm 6 m/s 661 mmHg 18%
    18:00 +36°C° 0 mm 5 m/s 661 mmHg 19%
    19:00 +35°C° 0 mm 5 m/s 661 mmHg 21%
    20:00 +34°C° 0 mm 5 m/s 661 mmHg 22%
    21:00 +33°C° 0 mm 5 m/s 662 mmHg 20%
    22:00 +32°C° 0 mm 4 m/s 662 mmHg 17%
    23:00 +30°C° 0 mm 4 m/s 662 mmHg 15%

    21 Novembre, Mercredi

    Heure Température Précipitation Vent Pression Humidité
    00:00 +29°C° 0 mm 3 m/s 662 mmHg 13%
    01:00 +27°C° 0 mm 3 m/s 661 mmHg 12%
    02:00 +26°C° 0 mm 2 m/s 661 mmHg 10%
    03:00 +25°C° 0 mm 2 m/s 661 mmHg 11%
    04:00 +25°C° 0 mm 1 m/s 661 mmHg 11%
    05:00 +25°C° 0 mm 1 m/s 661 mmHg 11%
    06:00 +26°C° 0 mm 1 m/s 662 mmHg 11%
    07:00 +28°C° 0 mm 1 m/s 663 mmHg 11%
    08:00 +29°C° 0 mm 1 m/s 664 mmHg 11%
    09:00 +31°C° 0 mm 2 m/s 664 mmHg 10%
    10:00 +34°C° 0 mm 2 m/s 664 mmHg 9%
    11:00 +35°C° 0 mm 3 m/s 664 mmHg 8%
    12:00 +36°C° 0 mm 3 m/s 664 mmHg 7%
    13:00 +37°C° 0 mm 4 m/s 663 mmHg 7%
    14:00 +40°C° 0 mm 5 m/s 663 mmHg 7%
    15:00 +39°C° 0 mm 5 m/s 662 mmHg 7%
    16:00 +39°C° 0 mm 5 m/s 662 mmHg 8%
    17:00 +39°C° 0 mm 5 m/s 662 mmHg 9%
    18:00 +36°C° 0 mm 4 m/s 662 mmHg 10%
    19:00 +34°C° 0 mm 4 m/s 662 mmHg 11%
    20:00 +31°C° 0 mm 3 m/s 662 mmHg 13%
    21:00 +30°C° 0 mm 3 m/s 662 mmHg 13%
    22:00 +29°C° 0 mm 3 m/s 662 mmHg 14%
    23:00 +28°C° 0 mm 3 m/s 662 mmHg 14%

    22 Novembre, Jeudi

    Heure Température Précipitation Vent Pression Humidité
    00:00 +27°C° 0 mm 3 m/s 662 mmHg 15%
    01:00 +26°C° 0 mm 3 m/s 662 mmHg 16%
    02:00 +25°C° 0 mm 2 m/s 661 mmHg 16%
    03:00 +25°C° 0 mm 2 m/s 661 mmHg 17%
    04:00 +24°C° 0 mm 2 m/s 662 mmHg 19%
    05:00 +23°C° 0 mm 2 m/s 662 mmHg 20%
    06:00 +25°C° 0 mm 3 m/s 662 mmHg 20%
    07:00 +27°C° 0 mm 4 m/s 663 mmHg 21%
    08:00 +29°C° 0 mm 5 m/s 664 mmHg 22%
    09:00 +32°C° 0 mm 5 m/s 664 mmHg 21%
    10:00 +33°C° 0 mm 5 m/s 664 mmHg 21%
    11:00 +35°C° 0 mm 4 m/s 664 mmHg 21%
    12:00 +36°C° 0 mm 4 m/s 663 mmHg 18%
    13:00 +37°C° 0 mm 3 m/s 663 mmHg 15%
    14:00 +38°C° 0 mm 2 m/s 662 mmHg 12%
    15:00 +38°C° 0 mm 2 m/s 662 mmHg 11%
    16:00 +38°C° 0 mm 2 m/s 662 mmHg 10%
    17:00 +38°C° 0 mm 2 m/s 661 mmHg 9%
    18:00 +36°C° 0 mm 3 m/s 661 mmHg 12%
    19:00 +34°C° 0 mm 3 m/s 661 mmHg 15%
    20:00 +31°C° 0 mm 3 m/s 661 mmHg 19%
    21:00 +30°C° 0 mm 3 m/s 662 mmHg 26%
    22:00 +29°C° 0 mm 4 m/s 662 mmHg 33%
    23:00 +28°C° 0 mm 5 m/s 662 mmHg 40%
    Voir plus